Stations météo

réclame
Mon MeteoGroup
Trieste, Italie (16110): Température de l'air & dewpoint: 17.04.2018 04:00:00 - 23.04.2018 04:00:00 (CEST)Trieste, Italie (16110): Vitesse du vent: 17.04.2018 04:00:00 - 23.04.2018 04:00:00 (CEST)Trieste, Italie (16110): Direction du vent: 17.04.2018 04:00:00 - 23.04.2018 04:00:00 (CEST)Trieste, Italie (16110): reduced air pressure: 17.04.2018 04:00:00 - 23.04.2018 04:00:00 (CEST)Trieste, Italie (16110): visibility: 17.04.2018 04:00:00 - 23.04.2018 04:00:00 (CEST)Trieste, Italie (16110): Ensoleillement: 17.04.2018 04:00:00 - 23.04.2018 04:00:00 (CEST)
Date & Time tt [°C] td [°C] ff [km/h] ff [knt] dd ppp [hPa] vv [km] sd [min]
23.04.2018 04:00:00 - - - - - - - -
23.04.2018 03:00:00 13,0 7,5 2 1 NE 1018,3 20 -
23.04.2018 02:00:00 13,6 7,6 0 0 N 1018,4 20 -
23.04.2018 01:00:00 14,0 7,1 4 2 NE 1018,3 20 -
23.04.2018 00:00:00 14,6 8,1 0 0 N 1018,3 20 -
22.04.2018 23:00:00 15,4 7,2 2 1 NE 1018,1 20 -
22.04.2018 22:00:00 16,4 6,8 5 3 NE 1017,9 20 -
22.04.2018 21:00:00 17,2 7,3 4 2 NE 1017,7 20 -
22.04.2018 20:00:00 18,8 7,9 0 0 N 1017,6 20 42
22.04.2018 19:00:00 21,0 10,2 0 0 N 1017,3 20 60
22.04.2018 18:00:00 21,0 9,0 0 0 N 1017,4 20 60
22.04.2018 17:00:00 21,8 9,0 0 0 N 1017,8 20 60
22.04.2018 16:00:00 22,0 4,6 0 0 N 1018,1 20 60
22.04.2018 15:00:00 21,0 10,8 0 0 N 1018,7 20 60
22.04.2018 14:00:00 20,4 15,2 4 2 W 1019,1 20 60
22.04.2018 13:00:00 20,0 14,6 2 1 NW 1019,1 20 60
22.04.2018 12:00:00 19,0 13,6 2 1 WNW 1019,1 20 60
22.04.2018 11:00:00 17,8 15,4 0 0 N 1019,1 20 60
22.04.2018 10:00:00 17,0 14,5 0 0 N 1018,9 20 60
22.04.2018 09:00:00 16,8 14,3 0 0 N 1018,9 20 60
22.04.2018 08:00:00 15,0 11,0 0 0 N 1018,7 20 42
22.04.2018 07:00:00 13,0 9,8 0 0 N 1018,7 20 -
22.04.2018 06:00:00 14,0 10,0 0 0 N 1018,7 20 -
22.04.2018 05:00:00 14,0 10,2 0 0 N 1018,8 20 -
22.04.2018 04:00:00 13,8 10,4 0 0 N 1019,0 20 -
22.04.2018 03:00:00 15,4 9,5 2 1 NNE 1019,1 20 -
22.04.2018 02:00:00 15,0 9,8 2 1 NE 1019,5 20 -
22.04.2018 01:00:00 16,0 9,7 4 2 NE 1019,4 20 -
22.04.2018 00:00:00 16,0 10,3 0 0 N 1019,5 20 -
21.04.2018 23:00:00 17,4 8,3 2 1 NE 1019,5 20 -
21.04.2018 22:00:00 18,0 8,0 4 2 NNE 1019,4 20 -
21.04.2018 21:00:00 18,4 9,2 5 3 NE 1019,2 20 -
21.04.2018 20:00:00 20,6 12,3 0 0 N 1018,8 20 30
21.04.2018 19:00:00 22,0 11,1 0 0 N 1018,7 20 60
21.04.2018 18:00:00 22,4 10,9 4 2 W 1018,8 20 60
21.04.2018 17:00:00 24,0 10,7 2 1 WNW 1018,8 20 60
21.04.2018 16:00:00 24,8 11,0 2 1 W 1019,2 20 60
21.04.2018 15:00:00 25,0 11,6 2 1 W 1019,5 20 60
21.04.2018 14:00:00 23,8 15,8 2 1 SSW 1019,8 20 60
21.04.2018 13:00:00 24,0 15,0 4 2 N 1020,2 20 60
21.04.2018 12:00:00 23,2 14,2 4 2 N 1020,8 20 60
21.04.2018 11:00:00 23,4 13,3 0 0 N 1020,8 20 60
21.04.2018 10:00:00 21,2 14,1 4 2 ENE 1020,7 20 60
21.04.2018 09:00:00 20,2 14,1 4 2 E 1020,8 20 60
21.04.2018 08:00:00 17,6 13,3 0 0 N 1021,0 22 42
21.04.2018 07:00:00 16,8 12,1 0 0 N 1020,6 22 -
21.04.2018 06:00:00 21,0 11,1 11 6 NE 1020,2 20 -
21.04.2018 05:00:00 21,0 10,5 18 10 ENE 1019,8 20 -
21.04.2018 04:00:00 22,0 12,3 13 7 ENE 1020,5 20 -
21.04.2018 03:00:00 18,8 10,6 5 3 NE 1020,6 20 -
21.04.2018 02:00:00 22,4 9,9 9 5 ENE 1020,8 20 -
21.04.2018 01:00:00 23,8 9,8 13 7 NNE 1020,7 20 -
21.04.2018 00:00:00 22,6 9,0 8 4 NNE 1020,7 20 -
20.04.2018 23:00:00 22,8 9,6 8 4 W 1020,8 20 -
20.04.2018 22:00:00 23,0 9,0 8 4 NE 1020,8 20 -
20.04.2018 21:00:00 22,8 8,9 5 3 NE 1020,5 20 -
20.04.2018 20:00:00 26,4 8,4 5 3 ENE 1020,1 20 12
20.04.2018 19:00:00 28,0 8,3 5 3 ESE 1019,9 20 60
20.04.2018 18:00:00 28,0 10,2 5 3 W 1020,1 20 60
20.04.2018 17:00:00 25,0 12,2 2 1 WNW 1020,8 20 60
20.04.2018 16:00:00 24,0 12,6 2 1 NNW 1021,4 20 60
20.04.2018 15:00:00 26,4 10,1 4 2 WNW 1021,9 20 60
20.04.2018 14:00:00 27,0 9,4 8 4 ENE 1022,5 20 60
20.04.2018 13:00:00 27,8 10,1 4 2 WSW 1023,0 20 60
20.04.2018 12:00:00 27,0 10,7 2 1 N 1023,6 20 60
20.04.2018 11:00:00 25,0 11,9 4 2 - 1023,8 20 60
20.04.2018 10:00:00 24,6 10,5 2 1 ESE 1024,0 20 60
20.04.2018 09:00:00 23,0 10,4 4 2 NNE 1024,3 20 60
20.04.2018 08:00:00 21,0 9,9 4 2 ENE 1024,2 20 18
20.04.2018 07:00:00 17,6 11,4 4 2 SW 1023,9 20 -
20.04.2018 06:00:00 17,0 8,7 5 3 NNE 1023,8 20 -
20.04.2018 05:00:00 18,0 7,7 4 2 NNE 1023,8 20 -
20.04.2018 04:00:00 15,4 8,2 2 1 ENE 1024,4 20 -
20.04.2018 03:00:00 16,0 8,7 2 1 ENE 1024,4 20 -
20.04.2018 02:00:00 20,8 16,2 0 0 N 1024,9 20 -
20.04.2018 01:00:00 22,4 16,0 2 1 NE 1024,8 20 -
20.04.2018 00:00:00 16,6 12,2 0 0 N 1024,8 20 -
19.04.2018 23:00:00 17,6 12,5 0 0 N 1024,9 20 -
19.04.2018 22:00:00 22,0 4,1 11 6 NE 1024,8 20 -
19.04.2018 21:00:00 22,2 3,8 9 5 NE 1024,6 20 -
19.04.2018 20:00:00 25,0 4,7 5 3 ENE 1024,3 22 42
19.04.2018 19:00:00 27,0 4,7 5 3 E 1024,4 22 60
19.04.2018 18:00:00 27,8 5,4 9 5 ENE 1024,6 22 60
19.04.2018 17:00:00 27,8 5,4 15 8 NE 1025,2 22 60
19.04.2018 16:00:00 27,6 6,4 8 4 NE 1025,4 20 60
19.04.2018 15:00:00 27,2 6,0 11 6 NE 1026,3 22 60
19.04.2018 14:00:00 26,6 6,1 15 8 NE 1026,7 22 60
19.04.2018 13:00:00 26,4 7,0 9 5 ENE 1027,1 22 60
19.04.2018 12:00:00 25,0 6,7 15 8 ENE 1027,6 25 60
19.04.2018 11:00:00 24,0 7,2 11 6 ENE 1028,0 25 60
19.04.2018 10:00:00 22,0 9,2 4 2 N 1028,1 20 60
19.04.2018 09:00:00 19,6 10,0 2 1 NNE 1028,0 20 60
19.04.2018 08:00:00 15,4 8,2 0 0 N 1028,0 20 30
19.04.2018 07:00:00 14,8 8,1 4 2 NNE 1028,2 20 -
19.04.2018 06:00:00 14,8 8,1 4 2 NNE 1027,8 20 -
19.04.2018 05:00:00 14,8 8,1 2 1 SW 1028,3 20 -
19.04.2018 04:00:00 15,8 5,7 5 3 NE 1028,1 20 -
19.04.2018 03:00:00 15,6 7,9 2 1 NE 1028,2 20 -
19.04.2018 02:00:00 15,4 7,4 5 3 NE 1028,4 20 -
19.04.2018 01:00:00 16,8 6,3 2 1 ENE 1028,2 20 -
19.04.2018 00:00:00 18,4 5,9 9 5 ENE 1028,1 20 -
18.04.2018 23:00:00 19,4 5,5 5 3 ENE 1027,8 20 -
18.04.2018 22:00:00 19,6 4,9 4 2 NNE 1027,4 20 -
18.04.2018 21:00:00 20,6 4,2 4 2 ENE 1027,1 20 -
18.04.2018 20:00:00 23,0 4,0 9 5 ENE 1026,8 20 0
18.04.2018 19:00:00 24,0 4,4 13 7 E 1026,4 20 54
18.04.2018 18:00:00 25,4 4,5 9 5 E 1026,3 20 60
18.04.2018 17:00:00 26,2 4,1 5 3 ENE 1026,3 20 60
18.04.2018 16:00:00 26,2 4,6 8 4 E 1026,6 20 60
18.04.2018 15:00:00 26,0 5,0 8 4 ENE 1026,9 20 60
18.04.2018 14:00:00 26,0 5,6 5 3 ENE 1026,9 20 60
18.04.2018 13:00:00 24,4 6,7 16 9 ENE 1027,2 20 60
18.04.2018 12:00:00 23,8 7,9 13 7 ENE 1027,3 20 60
18.04.2018 11:00:00 22,4 8,5 5 3 E 1027,7 20 60
18.04.2018 10:00:00 20,8 9,1 8 4 ENE 1027,6 20 60
18.04.2018 09:00:00 18,8 9,9 4 2 SW 1027,2 20 60
18.04.2018 08:00:00 16,0 9,9 2 1 NE 1026,5 20 18
18.04.2018 07:00:00 16,8 10,2 4 2 NNE 1025,8 20 -
18.04.2018 06:00:00 14,6 9,6 2 1 N 1025,6 10 -
18.04.2018 05:00:00 17,0 9,2 8 4 E 1025,5 15 -
18.04.2018 04:00:00 15,8 9,2 4 2 NE 1025,2 15 -
18.04.2018 03:00:00 16,2 9,4 5 3 NNE 1025,2 15 -
18.04.2018 02:00:00 16,2 9,6 4 2 NE 1025,1 15 -
18.04.2018 01:00:00 16,8 9,7 5 3 NE 1024,5 15 -
18.04.2018 00:00:00 16,6 10,0 4 2 NE 1024,3 15 -
17.04.2018 23:00:00 17,2 10,1 5 3 NE 1023,9 15 -
17.04.2018 22:00:00 18,0 9,6 4 2 ENE 1023,1 15 -
17.04.2018 21:00:00 18,4 9,2 5 3 NE 1022,0 20 -
17.04.2018 20:00:00 21,6 7,8 5 3 E 1022,8 20 0
17.04.2018 19:00:00 23,0 7,5 5 3 E 1022,4 20 36
17.04.2018 18:00:00 23,6 7,7 9 5 N 1022,4 20 60
17.04.2018 17:00:00 23,2 9,2 2 1 N 1022,4 20 18
17.04.2018 16:00:00 23,2 9,6 11 6 NNE 1022,6 20 24
17.04.2018 15:00:00 19,0 12,7 2 1 SW 1023,1 20 0
17.04.2018 14:00:00 18,6 12,1 0 0 N 1023,1 20 0
17.04.2018 13:00:00 17,6 12,9 0 0 N 1021,1 20 0
17.04.2018 12:00:00 17,4 12,7 0 0 N 1021,0 20 0
17.04.2018 11:00:00 17,8 10,2 2 1 E 1020,2 15 0
17.04.2018 10:00:00 18,2 11,0 11 6 NE 1019,6 15 0
17.04.2018 09:00:00 17,6 9,7 2 1 N 1018,8 15 0
17.04.2018 08:00:00 17,8 9,7 15 8 NNE 1018,5 15 -
17.04.2018 07:00:00 17,4 9,6 18 10 NNE 1017,8 15 -
17.04.2018 06:00:00 17,0 9,7 11 6 ENE 1017,4 15 -
17.04.2018 05:00:00 17,0 10,8 4 2 N 1016,9 10 -
17.04.2018 04:00:00 18,0 10,9 2 1 NNW 1016,3 15 -

tt = Température de l'air
td = dewpoint
ff = Vitesse du vent
dd = Direction du vent
ppp = reduced air pressure
vv = visibility
sd = Ensoleillement

stations d'obs. à proximité